GFSMA_con_mlcape_000.txt.gz
CAPE
1546 1583 1552 1617 1242 1313 1576 1615 1520 1452 1390 909 855 921 743 734 839 896 1057 980 954 910 999 1540 1376 1080 594 1243 1000 1159 646 714 589 556 194 368 327 252 308 410 613 719 840
1570 1410 1396 1392 1432 1326 1524 1574 1358 1498 1335 1201 928 905 740 689 821 943 870 1132 721 919 942 1201 1303 1099 805 675 899 1251 906 808 741 781 592 333 282 422 493 513 612 609 629
1664 1754 1301 1322 1326 1555 1138 1265 1489 1481 1382 1224 1092 1019 979 826 847 1039 1107 821 955 844 975 1018 1227 1149 1092 796 739 743 695 941 823 914 923 645 467 461 397 346 636 542 407
1868 1315 1191 1284 1315 1539 1146 1121 1183 1283 1390 1075 1071 996 837 718 749 886 898 791 730 525 993 979 1095 1108 926 1080 1283 1103 1193 967 623 383 297 412 522 589 730 802 352 315 494
1569 1311 1130 1087 968 1162 1122 912 1128 1177 1053 1068 987 812 807 718 670 535 522 642 799 706 530 1011 970 1144 1163 996 1335 1580 1052 940 839 591 512 466 539 808 689 342 460 541 350
1632 1730 1449 1362 1436 1157 1023 1078 1021 1168 1053 980 886 597 511 559 531 468 431 561 645 571 593 468 1175 1046 1054 1329 1151 1318 1345 987 1011 947 805 718 531 525 448 401 339 274 280
2033 2031 1476 1399 1583 1353 1395 1507 1678 1180 898 769 824 702 505 499 522 520 394 410 428 434 448 489 553 715 835 925 916 815 1393 1581 1667 1490 1180 865 775 723 699 586 490 435 434
1365 1230 1164 946 937 916 1021 1297 1405 1170 726 696 708 587 243 311 305 473 429 294 349 377 315 431 551 688 619 762 1408 1221 973 907 1147 1267 906 722 740 874 909 862 790 733 686
763 766 744 754 812 962 753 766 872 859 767 513 603 585 205 187 188 239 409 347 275 344 345 271 362 546 779 699 635 1063 1099 926 848 938 1065 1012 837 742 848 817 814 806 756
457 462 566 546 770 730 768 657 728 839 691 660 495 554 505 230 189 228 242 314 365 306 330 319 249 341 699 919 773 566 963 821 744 782 830 979 1111 1173 1191 1095 988 959 878
217 293 442 434 536 529 446 462 525 784 645 523 460 402 374 401 380 350 212 219 349 296 273 355 296 222 282 704 836 802 616 645 1108 867 721 724 747 1054 951 1015 1002 1015 987
42 133 100 106 214 281 328 397 445 648 747 691 671 606 467 410 384 385 375 226 188 174 316 204 233 250 233 244 512 601 776 705 663 537 403 525 426 411 548 1021 1087 1217 1220
3 2 0 0 0 65 142 230 312 485 567 660 639 684 729 548 443 502 440 431 325 248 236 275 268 282 262 252 254 386 355 435 673 581 354 196 135 79 193 519 915 1108 1221
0 0 1 1 3 28 67 155 243 310 372 409 536 508 644 843 751 662 254 308 445 336 310 241 368 333 273 338 290 282 342 432 276 206 148 114 120 64 37 202 539 665 839
0 0 6 10 30 70 180 290 207 172 231 347 383 396 401 459 618 611 460 383 540 329 275 220 314 309 397 578 477 429 417 567 422 260 138 93 82 87 81 92 376 465 474
29 30 26 30 50 87 84 133 86 106 335 347 348 264 264 266 327 400 533 413 322 576 262 193 128 245 505 565 652 640 764 772 806 617 274 136 83 104 144 175 244 242 190
80 73 158 197 190 219 217 190 138 46 53 98 116 76 180 269 227 205 340 456 493 436 223 78 68 147 398 539 603 766 1011 1128 1026 788 505 196 77 89 138 138 97 59 59
65 96 169 403 376 332 348 392 293 206 153 75 86 76 102 176 165 350 263 245 293 298 264 190 103 194 248 471 646 872 1115 795 963 692 616 247 150 121 97 72 51 19 1
73 169 340 304 205 395 364 361 399 190 78 53 14 3 0 4 15 153 381 258 132 253 259 280 187 166 143 198 363 685 862 862 759 775 578 226 182 167 120 41 0 0 0
211 379 424 397 474 524 484 477 400 177 45 9 0 3 0 5 14 180 204 366 295 151 226 204 197 133 139 191 353 460 689 544 625 725 776 668 257 54 0 0 0 0 0
135 277 274 382 399 410 478 516 157 167 59 8 4 0 0 11 4 1 8 214 242 292 109 177 114 93 110 118 196 384 377 588 653 640 579 574 504 411 279 0 2 0 0
92 210 260 287 447 512 161 0 0 103 38 51 21 0 0 4 3 3 0 0 12 208 243 167 26 50 84 125 158 234 348 392 412 751 549 412 376 260 258 222 225 68 0
274 189 215 309 455 500 238 0 0 74 53 3 34 25 0 0 2 2 2 2 0 1 34 250 44 27 111 133 160 213 274 462 451 263 683 452 348 233 376 201 81 42 4
236 181 224 386 372 325 179 15 0 99 146 96 40 75 20 2 0 0 2 3 4 0 18 7 92 55 109 157 148 234 533 479 599 476 668 510 246 300 555 323 147 48 0
123 108 262 423 388 354 116 113 0 156 203 101 167 52 30 21 0 0 1 2 1 5 0 22 15 85 89 65 177 258 306 525 323 487 502 498 305 253 521 438 308 18 0
168 247 276 403 475 274 269 117 48 171 144 179 144 67 22 15 0 0 0 2 2 2 7 27 21 14 18 42 16 75 306 292 479 265 175 330 285 378 589 379 432 72 0

GFSMA_con_mlcape_006.txt.gz
CAPE
1331 1252 1440 1698 1397 1491 1304 1288 1524 1485 1295 1282 1242 1019 662 637 530 751 1173 932 607 718 819 1672 1517 1569 1212 763 1016 1001 1008 593 475 415 471 766 793 678 589 400 487 630 698
1381 1366 1217 1492 1608 1250 1773 1737 1619 1315 1395 1380 1081 1005 970 784 695 782 929 1148 635 497 749 970 1824 1766 1705 1064 733 1003 1146 1039 920 940 542 230 441 737 433 410 556 694 797
1556 1401 1078 1117 1156 1687 1528 1543 1630 1474 1501 1289 1309 1090 1025 822 672 930 731 1282 983 782 514 595 1042 2065 1837 1195 770 1399 1275 1141 809 751 784 746 246 147 176 282 398 400 354
1170 1341 1284 1211 1273 1248 1424 1453 1338 1138 1265 1236 1273 1149 1094 1007 794 1055 859 843 1234 1440 964 557 681 926 1496 1532 1141 784 1579 1328 1313 869 1175 1104 704 753 543 394 410 451 354
1823 1466 1399 1760 1537 1240 1378 1404 1328 1289 1116 849 967 1250 1232 1176 893 605 926 905 806 1050 1355 1135 709 681 973 1369 1352 1213 1111 1268 1244 1192 1016 964 915 713 712 545 600 560 467
1712 1443 1561 1413 1308 1258 1239 1021 920 936 983 1254 1157 1038 962 1093 908 718 498 575 1032 871 820 1292 1357 905 915 1263 1556 1374 1217 1236 1166 958 958 940 721 433 309 449 653 581 408
1611 1858 1721 1548 1375 1211 1163 990 1009 985 796 1004 657 569 862 952 940 1123 935 699 445 639 778 769 1529 1157 1069 949 1242 1510 1348 1576 1496 1362 1163 949 711 496 472 581 578 508 364
1470 930 1168 860 459 717 640 427 375 476 650 709 386 301 337 364 623 706 957 699 626 677 525 580 892 1373 1301 1452 1259 1306 1247 1050 1493 1473 1334 943 713 600 582 608 566 509 497
284 559 769 746 646 528 412 574 401 310 500 630 572 354 236 46 181 208 792 791 762 588 614 656 705 782 1049 1254 1608 1402 1079 1074 1251 1726 1562 1317 974 766 751 741 602 515 502
250 309 346 504 655 461 391 468 525 382 404 342 391 552 425 380 330 156 244 521 576 759 807 690 670 912 824 1091 1055 1643 1572 1207 1181 1294 1622 1567 1412 1182 915 719 530 381 353
176 330 354 480 309 454 407 309 366 241 249 317 352 393 355 266 314 519 256 274 331 594 547 94 148 224 965 948 1011 924 1412 1694 1316 1152 1005 1032 1073 1213 933 596 504 442 377
2 372 312 193 187 184 191 74 167 170 170 211 264 272 290 290 260 140 156 251 330 393 511 399 241 193 310 671 1074 1088 1099 1173 1328 1284 1051 950 861 887 992 1006 895 865 698
3 208 220 189 110 114 101 95 77 35 86 56 36 82 102 172 276 241 163 32 78 152 324 405 338 235 40 26 103 581 954 1172 1036 921 930 893 875 829 783 1012 1111 1114 925
36 12 90 96 79 140 84 59 3 59 134 17 0 10 120 119 171 78 118 94 0 0 93 164 344 198 306 154 1 58 202 288 671 825 792 704 610 673 792 820 744 968 1045
105 128 89 40 101 95 31 19 47 2 72 52 37 58 0 32 116 21 59 95 84 3 0 28 179 219 184 135 75 60 3 7 391 299 356 506 532 520 552 603 548 442 586
166 214 189 179 125 178 205 74 5 74 77 34 151 84 115 84 0 54 2 16 20 29 8 1 85 293 287 312 321 243 210 231 135 206 153 137 139 224 336 407 374 230 166
223 269 246 201 185 190 252 105 56 138 78 178 214 72 98 0 0 0 0 0 0 1 15 4 12 194 348 249 182 373 500 628 503 261 125 101 90 92 109 144 185 154 68
91 91 149 178 157 233 226 23 103 207 230 255 300 153 117 0 0 0 0 0 0 1 3 34 1 119 212 253 118 68 230 140 206 237 340 230 94 96 88 70 45 0 0
70 230 233 159 116 180 274 248 320 234 440 508 413 193 210 26 0 0 0 0 0 1 0 3 12 67 162 236 137 211 146 72 116 30 497 297 116 128 105 86 61 0 0
312 336 278 238 143 310 307 391 340 340 348 497 448 330 272 184 0 0 0 0 0 0 0 0 2 6 149 161 178 50 129 234 271 454 654 436 173 120 167 99 38 0 0
414 384 197 310 466 482 313 243 329 246 353 356 497 398 295 249 87 13 0 0 0 0 0 2 3 3 1 147 188 66 65 155 203 311 238 400 483 361 254 105 54 0 0
399 317 274 347 249 383 108 99 91 196 215 161 133 361 242 173 187 113 15 15 0 1 0 2 2 1 0 1 134 148 70 123 192 135 99 231 739 533 633 295 58 53 10
331 378 346 433 386 358 404 166 96 132 189 285 291 385 223 242 116 28 48 43 9 0 0 4 7 7 4 3 3 152 58 28 59 232 250 206 486 677 1015 707 297 23 10
479 357 386 448 330 353 318 85 125 202 276 351 424 337 211 104 140 134 20 10 14 0 4 8 9 6 7 7 1 44 109 9 172 276 318 70 338 417 682 871 586 366 138
408 505 474 394 357 273 250 149 56 218 352 231 381 378 312 77 117 41 16 2 0 0 1 0 4 3 2 5 1 3 8 47 32 124 282 68 344 318 483 447 412 182 173
369 36 376 549 540 468 89 77 5 0 0 73 164 275 192 51 25 0 0 6 17 17 0 3 2 2 0 2 0 0 0 105 0 77 195 41 203 311 68 154 162 0 0

GFSMA_con_mlcape_009.txt.gz
CAPE
1219 1026 1264 963 1208 1318 1025 1299 1451 1146 1107 1302 1350 1163 822 519 354 930 991 843 697 611 804 1637 1395 1422 1069 911 874 663 855 605 377 285 354 515 454 445 484 677 602 263 372
1305 1171 1092 952 1438 1239 1326 1327 1162 1084 1049 1046 1054 1366 1175 920 399 461 954 1000 690 637 780 895 1547 1517 1548 1053 991 1059 1037 843 551 429 382 632 831 750 747 468 335 464 676
1310 1364 1156 981 796 894 1235 1480 1530 1547 1272 1213 1183 1046 1079 1095 735 471 620 1046 1047 726 558 571 1181 1309 1534 1534 1156 1033 1090 1215 1059 815 703 405 274 379 722 380 294 442 494
1164 1298 1066 970 1181 1126 1087 853 895 925 934 824 843 835 900 902 830 805 732 971 950 804 784 626 472 762 1353 1831 1393 1148 1149 1170 1067 1007 875 763 676 459 182 166 193 246 292
1679 1426 1286 1209 1682 1419 1241 1103 1223 1001 807 697 663 781 730 819 927 1052 757 882 779 971 958 1054 716 469 593 1662 1703 1263 817 1462 1357 1065 909 952 973 763 547 598 464 367 404
1525 1187 995 996 1156 1018 892 873 756 600 729 608 750 618 475 427 526 594 644 711 593 772 1101 1103 1075 765 492 893 1744 1726 1341 598 1459 1468 1363 917 973 895 802 594 450 419 524
1329 1288 795 1193 1241 988 912 809 633 662 639 360 305 119 155 205 231 320 412 755 669 611 718 854 985 1051 856 798 746 1085 1615 1397 927 1184 1176 1131 826 682 585 446 246 281 540
1320 1399 968 688 510 468 210 194 332 306 221 311 229 104 3 44 63 314 341 487 577 479 368 650 818 1043 979 1029 840 882 1328 1577 1496 1176 1226 992 833 760 626 419 314 375 468
154 213 326 303 357 435 319 274 299 224 144 112 224 108 0 0 36 12 69 142 451 473 388 409 451 894 927 942 914 973 908 1067 1281 1551 1503 1396 1114 810 676 483 372 393 448
6 13 146 424 314 188 214 257 229 194 161 41 72 156 53 39 4 6 53 98 203 252 334 324 416 68 33 173 1038 1193 1340 1140 979 861 1000 1435 1443 1014 657 555 502 465 491
64 127 429 228 165 11 50 125 0 53 79 62 26 18 44 44 47 33 0 0 0 16 105 250 165 38 5 5 21 569 1072 815 989 1063 851 1039 1727 1561 1069 800 723 750 675
31 400 149 36 43 68 61 2 47 14 0 0 3 0 0 0 0 0 0 0 0 2 12 52 63 64 25 5 50 111 181 31 456 1088 1142 1011 1179 1691 1702 1311 1119 959 658
34 13 0 29 0 1 9 13 2 0 8 0 0 0 0 0 0 6 13 0 0 0 0 0 32 137 191 172 67 3 2 0 0 299 954 1214 1146 1180 1400 1594 1341 1049 844
0 39 2 49 3 8 37 71 8 1 8 22 0 12 0 0 0 0 0 0 0 0 0 0 0 9 168 212 124 94 1 2 13 33 584 797 959 971 877 954 1133 1054 942
0 6 6 0 3 77 129 78 11 0 8 0 0 0 0 22 0 0 0 0 0 0 0 0 0 0 0 71 232 216 119 43 74 26 59 240 652 681 697 714 778 742 674
0 2 43 66 64 9 3 109 13 0 0 0 0 19 3 0 0 0 0 0 0 0 2 1 0 1 0 1 161 256 151 82 25 54 25 21 47 522 556 527 516 515 522
123 106 89 58 38 50 111 178 82 12 18 107 99 72 0 6 0 0 0 0 0 0 0 0 0 0 0 12 0 216 184 110 68 100 44 70 101 99 330 308 349 364 385
0 8 0 3 17 16 10 21 19 14 71 50 105 37 102 83 0 0 0 0 0 0 0 0 0 0 0 0 1 51 92 84 128 249 218 40 102 58 68 92 91 92 115
3 0 6 31 32 0 0 23 127 84 72 71 101 139 165 115 67 3 0 0 0 0 0 0 0 0 0 0 0 13 76 62 88 158 89 89 100 38 17 0 0 0 42
24 70 178 61 74 82 103 172 171 136 124 49 65 302 243 180 101 56 5 0 0 0 0 0 0 2 3 0 0 0 18 82 58 181 91 44 13 8 6 0 0 0 4
106 99 162 153 54 177 265 93 49 81 69 73 149 84 172 204 204 108 26 0 0 0 0 0 0 2 2 2 1 1 2 40 60 113 90 32 1 4 45 41 0 0 0
116 330 133 94 100 235 152 76 66 58 56 46 79 76 143 166 119 61 38 5 53 14 0 6 0 3 0 3 5 1 3 7 28 76 62 47 96 166 175 66 41 37 67
450 104 108 277 52 230 252 88 108 37 50 87 131 122 94 171 127 57 13 17 60 59 48 26 5 6 16 5 12 4 4 6 8 14 62 29 79 25 58 97 142 94 111
221 174 193 109 173 337 273 193 46 39 43 80 120 138 145 137 91 39 1 1 0 3 19 24 29 11 4 6 9 7 6 4 2 18 68 27 72 13 103 355 402 252 158
330 309 312 141 308 229 65 35 13 0 1 0 0 16 110 82 2 0 0 0 0 0 0 5 5 1 1 3 3 5 9 8 3 5 11 15 16 19 49 137 377 281 153
394 413 179 39 149 56 28 1 0 0 0 0 21 9 0 0 0 0 0 0 0 0 0 1 1 0 2 4 2 1 1 10 4 3 0 0 56 63 37 188 236 179 98

GFSMA_con_mlcape_015.txt.gz
CAPE
1085 1001 1002 1036 1081 1043 958 1119 1058 1003 957 977 1004 1027 1036 989 878 640 649 1018 950 564 1045 1219 1398 1221 777 700 632 1020 734 386 409 619 509 269 287 355 241 244 365 434 449
1375 1171 981 901 835 981 1020 1002 879 986 1022 964 850 805 824 822 900 832 667 760 1005 568 568 697 1101 1512 1141 857 802 592 793 611 538 421 380 417 550 489 313 437 455 642 822
1338 1297 1156 819 865 788 881 996 839 776 820 771 796 688 579 580 550 716 727 726 848 700 530 462 454 550 1451 1068 929 827 714 651 983 767 493 495 481 493 623 586 657 764 745
1055 1245 872 709 794 797 818 812 803 815 706 524 370 279 205 227 271 457 645 673 671 783 751 624 476 532 696 1422 1347 1263 1042 922 743 776 680 618 578 602 883 922 780 840 739
1142 1109 756 728 796 643 646 655 725 607 307 333 316 168 101 44 80 186 47 209 414 702 768 780 691 527 503 582 830 1532 1517 1139 1094 1153 1188 1027 758 672 679 461 476 527 639
1032 880 803 736 613 512 413 219 142 249 365 532 234 19 0 0 21 62 39 207 345 435 487 662 716 641 714 635 496 702 1499 1503 1526 1222 906 1076 1235 1111 943 740 679 556 323
1091 933 381 388 523 241 119 89 90 126 207 212 56 0 0 0 0 0 0 45 28 181 398 487 590 367 479 674 537 470 509 988 1535 1643 1319 785 889 1083 996 869 716 802 729
937 564 370 531 297 142 53 58 47 12 52 146 23 0 0 0 0 0 0 0 0 0 0 113 348 425 499 492 509 598 632 576 655 875 1360 1238 1020 1097 1180 878 847 758 714
1026 828 458 172 60 0 0 0 21 0 0 35 52 44 0 0 0 0 0 0 0 0 0 0 69 239 358 336 384 400 464 606 673 814 808 974 937 1048 937 936 925 1014 834
0 0 0 0 0 0 0 0 0 0 0 0 16 79 49 38 0 0 0 0 0 0 0 0 0 0 62 108 126 165 169 68 100 235 854 789 860 1125 1356 1153 848 692 583
0 0 0 0 0 0 0 0 0 0 0 0 0 0 0 0 1 0 0 0 0 0 0 0 0 0 0 0 0 0 14 37 12 0 19 753 766 853 1038 1282 1319 946 710
0 0 2 1 0 0 0 0 0 0 0 0 0 0 0 0 0 0 0 0 0 0 0 0 0 0 0 0 0 0 0 29 90 63 75 138 419 722 857 986 1178 1440 1389
0 0 0 0 0 0 0 0 0 0 0 0 0 0 0 0 0 0 0 0 0 0 0 0 0 0 0 0 0 0 0 0 0 11 55 64 23 114 401 679 889 1112 1318
0 0 0 0 0 0 0 0 0 0 0 0 0 0 0 0 0 0 0 0 0 0 0 0 0 0 0 0 0 0 0 0 0 0 0 18 8 0 0 7 53 392 1019
0 0 0 0 0 0 0 0 0 0 0 0 0 0 0 0 0 0 0 0 0 0 0 0 0 0 0 0 0 0 0 0 0 0 0 0 0 0 0 0 0 0 113
0 0 0 0 0 0 0 0 0 0 0 0 0 0 0 0 0 0 0 0 0 0 0 0 0 0 0 0 0 0 0 0 0 0 0 0 0 0 0 0 0 0 197
0 0 0 0 0 0 0 0 0 0 0 0 0 0 0 6 13 4 0 0 0 0 0 0 0 0 0 0 0 0 0 0 0 0 0 0 0 0 0 0 0 0 0
0 0 0 0 0 0 0 0 0 0 0 0 6 4 0 9 14 7 0 0 0 0 0 0 0 0 0 0 0 0 0 0 0 0 0 0 0 0 0 0 0 0 0
0 0 0 0 0 0 0 0 0 0 0 0 4 20 21 9 0 0 4 0 0 0 0 0 0 1 0 0 0 0 0 0 0 0 0 0 0 0 0 0 0 0 0
0 0 0 0 0 0 0 0 0 0 8 0 0 3 29 8 5 2 4 6 0 0 0 0 0 1 0 0 0 0 0 0 0 0 0 0 0 0 0 0 0 0 0
0 30 1 4 0 3 40 0 0 0 0 0 12 29 17 27 55 27 11 18 10 1 0 0 0 0 0 0 0 0 0 0 0 0 0 0 0 0 0 0 0 0 0
3 0 57 44 26 53 80 0 26 0 9 0 0 9 1 13 24 27 46 105 71 6 0 0 0 0 0 0 0 0 0 4 6 2 1 0 1 1 9 5 1 0 0
0 27 76 124 95 105 32 7 24 12 26 13 0 3 0 0 5 6 23 31 22 24 17 3 0 0 0 0 0 0 0 4 5 4 9 9 0 0 0 18 1 6 0
36 51 147 216 210 182 38 18 57 36 24 0 0 0 0 0 0 0 0 0 0 0 0 0 0 0 0 0 0 0 2 3 3 3 6 8 0 0 0 0 8 0 0
134 211 246 257 199 110 23 24 6 13 0 0 0 0 0 0 0 0 0 0 0 0 0 0 0 0 0 0 0 3 3 5 5 5 6 5 1 1 2 0 5 13 0
211 219 207 212 111 105 44 22 0 0 0 0 0 0 0 0 0 0 0 0 0 0 0 0 0 0 0 0 0 1 1 4 6 4 3 2 1 1 5 0 1 41 15

GFSMA_con_mlcape_021.txt.gz
CAPE
1226 1186 1512 1101 1115 1512 1370 1193 1568 1623 1596 1554 1634 1524 1398 1438 1509 1336 1321 914 1155 1369 1047 913 953 1273 1023 675 538 1146 932 829 395 798 435 424 417 179 497 599 514 374 442
1302 1141 1278 1281 987 1441 1531 1229 1213 1354 1527 1441 1400 1474 1322 1148 1056 1131 1174 1358 780 1176 947 737 680 707 1062 1164 628 480 661 1229 909 520 504 966 499 396 373 430 463 380 440
1467 1214 1163 970 1282 1418 1364 1383 1157 1391 1146 1242 1241 849 728 567 425 512 621 924 1200 884 1014 688 545 683 600 962 1113 962 861 773 1212 817 442 401 812 522 417 490 414 474 547
1592 1607 1412 711 1302 1202 1276 1083 1146 1126 1074 868 809 640 503 413 367 374 406 470 532 809 1096 933 956 829 703 729 999 817 870 824 648 984 927 647 574 372 244 467 550 463 525
1296 1705 1106 1046 1081 1265 767 1036 918 639 413 360 228 171 274 312 350 316 528 774 653 630 835 1099 816 832 910 1001 1125 976 868 811 891 793 586 675 924 897 642 395 406 695 754
1043 958 1016 881 1315 1156 852 446 308 315 223 185 99 51 189 304 229 377 663 280 683 672 1082 1336 1365 1285 912 1070 1015 782 827 725 749 1011 1069 920 796 961 936 845 675 497 504
1058 1083 1057 1027 1110 829 447 359 214 144 93 339 83 0 41 181 149 272 350 19 20 50 304 746 1198 1290 1321 932 527 825 1054 688 548 570 896 795 947 985 980 907 1035 987 804
1710 1407 1346 1101 842 526 398 140 102 0 47 315 7 10 0 69 164 195 64 0 0 1 0 0 89 496 874 1054 731 546 547 817 947 1010 878 614 620 764 930 995 870 820 880
1752 1649 1231 914 745 472 76 28 49 79 0 45 35 20 0 0 0 54 156 0 0 0 0 0 0 0 0 0 8 38 18 82 256 466 601 651 1194 1125 799 748 853 954 778
1601 1446 1037 824 478 103 3 39 18 0 0 0 28 63 30 1 0 0 0 0 0 0 0 0 0 0 0 0 0 0 0 0 0 10 86 229 290 482 972 1147 873 807 889
1459 1504 1109 398 25 6 77 0 0 0 3 0 7 2 19 1 0 0 0 0 0 0 0 0 0 0 0 0 0 0 0 0 0 0 0 0 33 254 379 456 911 1228 898
262 201 161 35 57 76 16 0 0 0 2 7 0 0 0 0 0 0 0 0 0 0 0 0 0 0 0 0 0 0 0 0 0 0 0 0 0 0 125 357 524 1213 1232
54 0 33 69 80 29 0 0 0 0 0 0 0 0 0 0 0 0 0 0 0 0 0 0 0 0 0 0 0 0 0 0 0 0 0 0 0 0 0 12 183 466 715
28 63 87 160 117 0 0 0 0 0 0 0 0 0 2 1 0 1 6 1 0 0 0 0 0 0 0 0 0 0 0 0 0 0 0 0 0 0 0 0 0 5 84
13 15 48 66 35 0 0 1 0 7 0 36 34 46 23 21 21 5 1 2 2 0 0 0 0 0 0 0 0 0 0 0 0 0 0 0 0 0 0 0 0 0 0
22 49 41 76 16 0 4 1 0 0 0 17 44 35 36 0 21 30 14 44 16 0 0 0 0 0 0 0 0 0 0 0 0 0 0 0 0 0 0 0 0 0 0
0 53 29 9 42 41 40 15 0 8 0 27 62 37 58 97 39 51 64 77 51 28 0 0 0 0 0 0 0 0 0 0 0 0 0 0 0 0 0 0 0 0 0
0 0 1 21 62 66 44 44 29 11 11 23 0 39 59 87 108 19 35 37 73 79 46 2 0 3 4 1 6 2 0 0 0 0 0 0 0 0 0 0 0 0 0
17 5 4 27 36 75 70 71 20 10 30 12 22 52 73 75 40 20 47 51 48 65 49 43 3 0 1 0 0 0 2 0 0 0 0 0 0 0 0 0 0 0 0
0 0 0 0 10 32 75 70 36 30 39 69 49 131 150 49 44 22 63 39 50 39 51 38 18 8 5 7 8 7 7 12 15 3 0 0 0 0 0 0 0 0 0
0 0 0 0 3 34 48 10 37 85 244 179 194 203 123 69 14 3 23 32 67 55 43 34 26 13 4 6 6 14 12 10 6 10 1 0 0 0 0 0 0 0 0
0 0 0 1 28 23 18 0 37 224 410 226 138 218 153 18 1 0 0 0 1 27 49 49 41 21 2 12 16 22 20 2 1 1 2 0 0 0 0 0 0 0 0
0 0 0 4 73 81 37 24 32 214 510 430 270 208 62 67 4 0 0 0 0 0 2 29 4 6 19 9 12 7 8 8 6 7 1 0 2 1 0 2 3 1 0
0 0 0 37 166 189 64 69 83 212 313 378 291 190 112 52 5 0 0 0 0 3 4 1 1 1 0 0 1 7 3 2 8 5 15 9 8 0 1 6 7 4 1
12 6 27 110 134 248 90 32 22 31 59 77 120 73 11 0 0 0 0 0 0 0 0 0 0 0 0 0 0 2 1 11 7 3 0 1 1 4 6 4 5 4 1
1 110 80 87 44 156 68 16 0 7 23 15 0 0 0 0 0 0 0 0 0 0 0 0 0 0 0 0 0 2 2 7 14 2 0 1 3 5 8 5 1 5 10

GFSMA_con_mlcape_024.txt.gz
CAPE
1363 1572 1571 1153 1248 1220 1509 1483 1513 1545 1664 1584 1632 1680 1608 1604 1633 1353 1232 1118 1016 1347 1353 1483 1551 1431 1205 940 936 1471 962 687 283 454 535 973 784 448 498 414 613 682 523
1408 1226 1003 1304 1250 1259 1593 1605 1437 1494 1566 1580 1472 1445 1525 1399 1296 1357 1220 1466 967 1105 1276 1448 1258 1302 1208 1316 914 690 1266 1305 1090 615 951 624 621 588 351 488 700 564 477
1361 1425 1104 1000 1014 1508 1615 1471 1375 1465 1262 1098 1065 1026 1021 801 500 506 420 478 1133 868 927 1225 1103 806 1112 1025 1278 1017 608 657 1238 1298 806 603 832 872 674 447 518 657 483
1417 1325 1255 819 946 1587 1518 1321 1238 473 192 111 104 161 203 139 43 61 69 173 15 225 929 811 713 610 697 999 1227 1374 1058 942 835 1084 1188 881 662 758 777 587 629 625 462
1289 1409 1144 1201 1581 1358 1220 1114 398 357 4 0 0 0 0 25 56 125 334 464 328 257 180 871 900 724 854 1151 1163 1350 1233 761 721 1001 1135 1121 998 853 744 604 299 343 520
1396 1468 1116 1203 1119 1377 1179 640 611 33 0 0 0 0 3 54 144 308 428 320 677 672 725 956 853 832 928 943 1029 1007 980 673 698 662 831 995 942 979 883 941 774 625 402
1314 1513 1129 1145 934 1188 857 770 126 0 0 1 0 0 2 38 78 205 350 147 207 365 598 825 1022 749 1116 949 624 1045 1192 1415 1172 777 751 785 674 838 1039 1055 952 915 919
1826 1418 1399 1371 1300 502 1026 541 2 0 0 6 0 0 0 31 58 128 83 1 0 24 69 227 787 1052 1051 1016 953 463 379 654 995 1178 1211 1102 830 673 705 865 977 930 837
2005 1926 1595 1374 1527 836 96 53 0 0 0 0 14 0 1 4 0 60 124 1 0 0 0 0 0 0 0 13 100 43 0 13 129 359 505 538 552 603 1107 917 837 932 893
1806 1849 1856 1605 1600 341 10 0 2 0 3 0 1 0 26 39 9 18 11 0 0 0 0 0 0 0 0 0 0 0 0 0 0 0 0 12 89 226 409 795 970 1087 1017
1844 1418 1894 1522 1151 9 46 68 12 0 0 0 4 3 0 1 0 0 0 8 0 0 0 0 0 0 0 0 0 0 0 0 0 0 0 0 0 0 71 378 492 569 901
1096 1693 1598 1336 412 4 213 70 1 0 10 7 7 5 5 2 6 5 4 8 8 1 0 0 0 0 0 0 0 0 0 0 0 0 0 0 0 0 0 3 146 498 601
195 779 1052 614 345 434 318 53 3 0 2 2 5 7 12 14 16 15 2 0 2 1 0 0 0 0 0 0 0 0 0 0 0 0 0 0 0 0 0 0 0 13 248
104 375 565 468 437 405 260 51 0 5 13 8 9 7 0 5 11 15 21 14 3 0 5 2 0 0 0 0 0 0 0 0 0 0 0 0 0 0 0 0 0 0 0
144 278 430 421 431 381 142 53 5 24 12 5 8 12 12 4 13 19 23 21 19 11 11 20 9 0 0 0 0 0 0 0 0 0 0 0 0 0 0 0 0 0 0
213 179 281 301 309 272 110 175 14 10 21 0 10 16 49 13 19 32 37 32 32 27 11 14 3 8 9 0 0 0 3 0 0 0 0 0 0 0 0 0 0 0 0
208 158 194 206 287 171 179 216 92 0 24 54 34 19 45 106 46 40 58 45 46 28 3 0 0 3 13 31 16 10 11 9 3 0 0 0 0 0 0 0 0 0 0
12 10 77 12 85 201 254 186 114 2 44 58 44 52 72 88 79 132 39 31 29 51 35 2 0 2 12 27 34 22 16 6 5 0 0 0 0 0 0 0 0 0 0
0 0 0 0 20 233 265 218 209 138 78 52 52 93 110 98 95 73 52 18 36 43 46 48 16 2 6 19 35 44 20 9 5 3 0 0 0 0 0 0 0 0 0
0 0 0 0 10 203 173 122 240 179 115 106 160 198 206 146 110 74 76 15 36 69 61 55 53 32 18 18 38 35 34 32 15 20 11 1 0 0 0 0 0 0 0
0 0 0 0 139 151 25 125 159 180 177 276 312 274 291 254 157 79 37 3 66 15 45 40 34 38 40 68 66 40 17 29 14 40 12 1 0 1 0 0 0 0 0
0 20 0 4 71 1 0 11 161 105 167 408 379 373 389 358 119 44 2 0 0 0 24 26 6 14 37 44 15 28 26 22 7 0 0 3 5 7 11 10 0 0 0
1 162 112 139 79 42 10 9 22 58 119 466 596 650 270 204 106 181 120 7 0 0 0 0 16 26 14 16 13 14 17 12 3 0 10 3 21 13 19 11 9 0 0
16 98 170 246 289 142 184 52 19 58 110 310 151 84 57 97 195 156 106 64 44 39 49 45 32 28 22 7 2 0 3 5 5 3 3 13 43 28 21 8 0 0 0
112 160 218 314 408 407 225 103 54 112 144 62 32 18 19 44 41 3 12 11 9 1 0 0 0 0 0 0 0 3 1 8 15 13 15 40 24 36 20 0 1 0 0
333 367 401 607 330 523 86 45 96 235 117 36 7 6 0 2 0 0 0 0 1 0 5 1 0 1 0 8 3 1 3 12 35 24 5 33 19 6 1 1 0 2 3

GFSMA_con_mlcape_027.txt.gz
CAPE
1233 1341 1715 1328 1047 1029 1500 1364 1408 1694 1398 1731 1399 1671 1538 1547 1294 1387 1644 1159 1118 1091 1538 1840 1819 1850 1406 943 989 1255 1007 442 269 389 352 633 724 936 596 263 357 842 851
1475 1506 1403 1124 1462 1090 1462 1603 1677 1615 1414 1513 1437 1224 1234 1282 1191 1210 1222 1698 1204 1035 1022 1276 1780 1515 1256 1379 987 1025 1221 1154 747 314 486 587 1020 892 550 375 725 764 727
1517 1346 1455 1398 1123 1332 1892 1867 1660 1472 1191 1094 905 1274 810 780 570 324 339 145 1057 1216 1034 796 1153 1346 863 1207 1165 1087 638 1213 1231 1158 723 996 657 645 682 528 486 480 608
1871 1674 1360 1214 1101 1504 1584 1484 1151 951 291 84 1 0 0 0 0 4 14 123 114 107 1090 826 784 817 739 849 938 972 940 892 603 802 981 971 787 649 927 875 627 428 657
1807 1705 1461 1547 1751 1420 1492 1319 922 311 14 0 0 0 0 1 7 53 133 347 328 220 108 943 692 723 789 1113 1257 985 1014 954 939 924 1102 1144 1070 965 814 890 741 470 482
1608 1779 1413 1288 1570 1092 1417 843 715 99 0 4 0 0 0 1 29 83 284 203 464 462 711 841 1026 1180 780 1036 1224 1033 1030 953 862 696 654 1002 1078 1077 1075 964 775 792 533
1886 1723 1538 1287 1288 1137 879 647 130 0 0 1 0 7 1 1 7 66 181 47 154 325 479 744 1110 1197 754 853 1064 1172 1039 942 1058 843 792 620 741 996 1037 1040 996 944 910
1994 1366 1518 1056 1216 982 936 309 40 0 0 8 0 0 11 18 13 58 39 5 0 7 115 383 658 748 1022 1114 924 390 380 504 784 961 1022 892 971 844 892 805 744 787 916
1015 1839 1816 1411 1624 337 384 242 0 0 0 0 1 0 10 32 2 23 87 3 0 0 0 19 0 0 34 78 554 15 0 0 33 154 384 476 609 649 656 867 1005 900 883
670 1763 1459 918 1124 767 184 0 0 0 0 0 0 0 0 0 1 32 21 0 0 0 0 0 0 0 0 0 0 0 0 0 0 0 0 0 12 91 245 498 848 1093 1079
808 696 697 1286 1091 203 153 5 0 0 0 0 4 2 5 4 0 0 2 16 11 0 0 0 0 0 0 0 0 0 0 0 0 0 0 0 0 0 0 21 265 616 763
738 691 866 1238 1206 336 48 42 30 0 0 4 0 0 0 5 18 20 19 23 21 12 13 0 0 0 0 0 0 0 0 0 0 0 0 0 0 0 0 0 0 50 267
227 1167 1043 1701 1090 581 193 125 125 11 1 2 1 1 11 14 15 3 5 7 8 13 19 8 4 0 2 0 0 0 0 0 0 0 0 0 0 0 0 0 0 0 0
96 1077 1306 1297 737 582 328 230 46 24 16 15 7 4 0 5 18 21 14 11 3 7 10 33 26 15 1 4 0 0 0 0 0 0 0 0 0 0 0 0 0 0 0
165 1070 1059 835 765 458 317 209 116 75 70 47 6 23 13 4 4 20 20 18 25 16 12 44 23 42 15 1 0 0 0 1 0 0 0 0 0 0 0 0 0 0 0
407 596 775 815 667 368 317 276 93 137 103 36 2 14 24 0 8 11 18 21 29 22 24 36 30 23 26 16 36 38 8 0 0 0 0 0 0 0 0 0 0 0 0
1037 666 792 710 589 327 430 312 178 146 92 95 72 73 36 44 1 13 30 44 23 14 20 41 27 24 45 43 35 50 61 58 38 23 1 0 0 0 0 0 0 0 0
1411 809 642 558 394 390 307 263 234 41 24 60 106 93 44 14 82 160 58 7 13 16 13 13 21 22 29 49 48 52 56 36 32 17 0 0 0 0 0 0 0 0 0
1364 663 474 360 15 317 229 482 327 219 80 62 77 77 78 49 92 88 157 120 4 32 73 63 13 0 5 14 22 59 54 25 65 12 9 3 0 0 0 0 0 0 0
1123 373 133 319 201 290 152 529 315 235 179 82 93 170 131 166 213 195 219 195 194 39 68 30 35 36 18 0 24 27 23 34 34 22 5 0 2 5 0 0 0 0 0
822 463 239 160 289 21 178 419 147 224 312 173 147 245 349 285 212 150 169 113 142 40 17 33 24 22 7 22 21 16 18 20 22 24 7 17 6 0 0 1 1 0 0
668 464 262 125 193 302 182 68 216 171 294 351 349 475 534 325 342 128 99 66 29 5 8 28 12 13 16 4 25 10 10 1 3 0 0 0 0 0 38 68 63 5 0
773 473 225 312 383 521 32 0 0 64 273 334 451 743 519 409 115 39 74 80 40 17 3 23 39 51 29 52 14 0 3 6 3 0 0 0 2 8 55 36 8 13 1
954 446 358 359 444 585 227 1 0 18 190 277 583 911 628 273 62 22 29 34 72 84 135 65 36 63 38 36 1 0 0 0 1 3 3 19 30 74 43 35 54 0 0
1258 686 479 563 606 655 383 171 37 130 259 504 691 620 260 67 34 1 1 0 2 61 118 51 19 0 0 0 0 0 0 9 11 18 21 38 52 25 21 0 0 0 0
1389 836 496 555 500 591 594 319 142 516 498 554 946 606 73 46 3 0 1 6 7 66 64 76 59 12 0 1 0 2 23 31 34 27 4 37 12 0 8 0 1 0 2

GFSMA_con_mlcape_030.txt.gz
CAPE
1080 1309 1424 1526 1494 1469 1464 1041 1086 1464 1167 1521 1188 1598 1057 1210 1357 1139 1377 284 731 893 1434 1717 2063 1819 1253 1142 1468 1363 963 443 480 1176 1076 1026 785 792 859 675 411 636 839
1375 1417 1809 1461 1117 1028 1461 1646 1553 1039 1620 1333 1506 1494 771 1010 992 880 1444 1299 1009 666 903 1334 1595 1901 1816 1565 1003 1333 1359 1117 528 343 477 503 836 813 968 681 490 446 795
1862 1689 1497 1693 1580 1194 1384 1603 1491 1194 1257 1204 660 1350 842 810 834 62 108 109 1339 1128 926 760 794 1343 1446 1188 1198 1036 1314 1297 1211 917 431 581 788 1049 1044 679 298 547 771
2007 1876 1858 1661 1667 1523 1113 1122 1232 822 715 13 0 0 0 0 0 0 0 112 191 617 1013 722 736 645 969 974 1205 874 954 999 1293 1333 1033 911 990 926 792 790 766 690 436
1890 1758 1528 1425 1582 1220 1314 1363 786 645 15 0 0 0 1 0 1 9 71 172 296 278 734 1158 712 705 901 1204 1227 1125 950 972 854 860 1078 911 708 848 836 717 801 821 523
1612 1566 1557 1457 1588 1420 1049 860 590 165 0 0 0 0 0 0 15 164 42 276 196 343 799 1080 896 1109 631 949 1351 1303 991 747 786 754 839 906 898 1070 1173 1103 928 739 766
1812 1491 1525 1346 1308 1178 711 684 236 0 0 4 0 0 32 7 5 73 26 7 28 206 327 882 980 886 816 622 973 1268 1294 1044 827 716 673 724 797 791 1001 1021 1061 1000 908
1747 1416 1497 1496 1092 977 772 484 57 2 0 6 0 0 12 33 11 22 11 0 0 3 315 376 274 496 869 1282 568 455 529 655 771 949 909 789 707 669 694 904 967 997 985
1678 1897 1650 1311 1405 1045 1118 318 35 0 0 1 0 0 35 59 47 61 23 0 0 0 1 0 0 0 133 480 116 0 0 0 31 74 222 413 538 663 695 711 737 822 751
1009 1330 1272 1563 1179 926 412 34 59 0 0 0 0 0 0 0 40 36 37 8 0 0 0 0 0 0 0 0 0 0 0 0 0 0 0 0 0 13 131 290 518 770 1038
654 1808 1282 961 1175 763 106 0 21 0 0 0 0 5 1 0 0 0 3 19 25 0 0 0 0 0 0 0 0 0 0 0 0 0 0 0 0 0 0 0 0 170 589
865 1129 731 1109 948 601 274 30 29 16 0 0 0 0 0 4 11 12 0 4 7 16 5 0 0 0 0 0 0 0 0 0 0 0 0 0 0 0 0 0 0 0 0
939 801 1122 1524 1190 646 330 239 127 164 95 25 114 0 0 2 0 0 0 0 0 2 10 25 3 0 0 0 0 0 0 0 0 0 0 0 0 0 0 0 0 0 0
608 1108 1036 1524 1380 760 502 196 208 42 99 81 15 16 0 0 0 0 0 0 0 0 9 39 30 22 8 0 0 0 0 0 0 0 0 0 0 0 0 0 0 0 0
1295 1116 1168 1610 1265 940 492 399 189 114 164 198 87 52 21 1 0 1 4 3 7 0 0 19 38 42 43 0 0 0 0 1 0 0 0 0 0 0 0 0 0 0 0
1135 1322 1190 1280 1032 910 645 524 160 238 199 139 103 26 110 16 7 7 2 20 17 16 0 13 15 50 67 40 26 20 12 10 4 0 0 0 0 0 0 0 0 0 0
1419 1376 1159 1001 1226 1130 787 546 297 227 160 82 46 27 61 15 0 0 54 9 16 22 1 0 8 39 32 45 38 43 51 44 44 38 18 6 0 0 0 0 0 0 0
2091 1225 1092 1166 980 1054 759 694 100 102 362 298 208 166 40 151 60 68 21 27 8 15 23 17 6 39 0 68 62 41 33 35 28 30 18 0 2 0 0 0 0 0 0
2576 1386 1109 964 1009 814 560 609 434 148 262 36 155 224 130 129 129 45 97 68 69 67 66 5 36 65 9 30 30 61 38 37 18 23 11 7 3 0 0 0 0 0 0
3003 1847 1408 1110 938 702 659 673 661 563 263 224 289 218 281 217 117 115 64 56 109 87 81 21 6 26 75 69 67 16 1 20 9 16 17 21 0 0 0 0 0 0 0
3135 2242 1531 1219 980 533 613 494 654 612 405 296 261 275 216 397 279 241 132 172 60 16 2 0 0 0 0 0 0 0 3 6 8 3 0 0 0 0 0 0 0 0 0
2955 2195 1496 1052 787 450 376 212 585 506 551 544 302 533 393 371 204 66 39 22 11 3 9 7 3 0 0 9 22 7 13 0 0 0 0 0 0 0 0 0 0 0 6
2725 1958 1336 881 515 468 135 69 460 474 361 526 656 601 685 654 543 181 30 5 17 6 7 5 4 2 19 44 37 26 12 0 0 0 0 0 0 0 0 0 3 14 4
2436 1701 1085 729 487 601 470 119 126 147 320 527 609 638 637 808 580 338 92 22 8 32 55 18 4 13 36 60 87 10 0 0 0 0 0 5 0 0 9 32 16 14 2
2201 1713 1040 689 650 811 446 246 2 3 0 15 310 488 719 1035 913 198 43 19 11 2 24 11 21 51 30 2 0 4 0 0 0 0 0 6 16 26 4 0 0 0 0
2223 1503 1014 814 754 774 604 324 54 58 50 120 449 416 361 698 536 98 32 10 11 20 63 81 92 54 25 0 0 11 15 16 23 22 14 32 0 0 0 0 0 0 0

GFSMA_con_mlcape_033.txt.gz
CAPE
850 1364 1286 1431 1120 1300 1213 732 819 1156 1477 1339 1152 1134 706 744 399 310 578 658 904 784 1385 2102 1940 1275 1311 1345 1141 859 458 457 691 1059 1118 930 492 501 873 731 638 410 553
914 1232 1526 1571 1179 885 1164 1257 1143 1133 1311 964 939 1320 771 608 932 959 924 988 799 621 552 975 1638 2036 1542 1388 1268 1557 1281 714 296 397 941 806 784 775 862 710 507 310 444
1091 872 992 941 1300 1103 1168 970 956 1116 753 347 2 1073 821 543 748 908 801 909 989 866 659 749 780 1313 2089 1902 1431 1178 1444 1395 942 422 256 272 314 721 786 930 568 488 661
1443 1334 1051 1119 1722 1132 900 785 859 415 49 0 0 0 206 0 0 8 2 9 308 933 990 625 471 556 955 1713 1231 1488 1143 1182 1246 1117 866 492 471 867 708 994 781 566 492
1570 1412 1373 1199 1348 1298 1236 976 625 115 0 0 0 0 0 0 0 14 25 79 297 568 1053 827 569 474 609 929 1281 831 771 925 961 1073 1181 1061 982 989 950 711 531 595 879
1460 1157 1401 1457 1142 1237 806 655 437 70 0 0 0 0 0 0 0 44 91 78 377 551 763 1060 823 879 704 1213 1215 1230 1065 823 879 834 824 859 922 835 732 734 774 700 636
1386 1321 1276 1245 1248 1208 646 468 24 0 0 0 0 0 0 0 0 33 19 14 30 412 716 703 658 1095 867 548 924 968 1149 896 828 711 755 751 842 864 905 885 968 972 908
1084 1045 946 960 1012 814 539 117 0 0 0 0 0 0 0 1 14 17 5 0 0 163 126 34 238 557 754 567 385 551 737 869 887 760 805 769 831 879 766 618 773 845 912
1288 1627 1151 926 891 842 501 67 0 0 0 0 0 0 0 8 30 26 2 0 0 0 0 0 0 41 708 84 0 0 0 20 76 108 170 354 478 580 657 669 709 787 796
1468 1369 1337 886 1066 517 492 1 0 0 0 0 0 0 0 0 11 25 2 0 0 0 0 0 0 0 7 0 0 0 0 0 0 0 0 0 0 0 21 137 321 469 699
1204 1126 1203 1209 870 607 150 0 0 0 16 17 1 42 0 0 0 0 7 13 9 0 0 0 0 0 0 0 0 0 0 0 0 0 0 0 0 0 0 0 0 0 113
850 1051 981 987 761 194 8 10 17 0 16 22 9 0 0 0 0 0 0 0 0 1 3 0 0 0 0 0 0 0 0 0 0 0 0 0 0 0 0 0 0 0 0
403 1058 789 778 640 192 50 32 11 0 0 15 14 0 0 0 0 0 0 0 0 0 0 0 0 0 0 0 0 0 0 0 0 0 0 0 0 0 0 0 0 0 0
449 675 696 710 721 354 119 116 50 8 38 0 20 0 0 0 0 0 0 0 0 0 0 9 12 9 9 0 0 0 0 0 0 0 0 0 0 0 0 0 0 0 0
685 505 973 1042 862 558 273 167 62 0 9 5 0 8 0 0 0 0 0 0 0 0 0 0 4 6 21 2 0 0 0 0 0 0 0 0 0 0 0 0 0 0 0
1158 800 875 1060 933 746 326 174 132 39 59 85 35 0 0 9 9 0 0 0 0 0 0 0 0 5 28 17 26 5 2 2 3 1 0 0 0 0 0 0 0 0 0
1455 1117 1013 1000 918 734 335 347 171 86 153 16 38 9 46 30 0 0 2 0 0 0 0 0 0 23 52 32 33 17 16 0 1 7 14 21 3 0 0 0 0 0 0
1497 1247 929 954 816 671 495 433 248 185 28 153 66 28 0 0 0 0 0 0 5 0 0 0 0 2 10 1 12 0 0 14 0 9 15 11 5 0 0 0 0 0 0
1662 1404 1080 786 729 617 433 465 298 157 140 215 106 11 1 0 0 48 55 45 55 47 38 14 1 4 9 18 0 26 23 30 20 0 0 0 0 0 0 0 0 0 0
2158 1706 1344 1015 803 775 573 626 464 273 52 250 285 236 117 15 1 47 3 11 18 25 40 45 25 14 1 0 2 0 0 0 0 0 0 0 0 0 0 0 0 0 0
2600 2014 1499 1181 988 854 711 598 472 345 148 93 273 144 175 123 175 165 53 16 21 21 9 0 0 0 0 0 0 0 1 0 0 0 0 0 0 0 0 0 0 0 0
2891 2571 1840 1437 1089 971 822 653 366 379 201 290 273 257 244 267 370 374 234 192 84 18 0 0 0 0 0 1 5 1 0 0 0 0 0 0 0 0 0 0 0 0 0
3077 2905 2291 1749 1382 1062 703 561 519 422 371 514 385 277 393 276 227 178 86 43 31 13 1 0 0 0 0 0 0 0 0 0 0 0 0 0 0 0 0 0 0 0 0
3168 2797 2301 1895 1429 993 482 266 335 503 527 492 510 526 436 353 330 110 90 42 37 11 0 0 0 0 0 0 10 29 18 0 0 0 0 0 0 0 0 0 0 0 0
3042 2566 2082 1594 1283 815 522 232 64 84 314 423 461 568 499 493 350 320 229 113 41 29 29 1 0 0 0 31 50 23 0 3 0 0 0 8 0 0 0 0 0 0 0
2838 2148 1800 1411 1010 804 507 356 163 227 169 116 88 210 55 370 238 173 89 51 67 47 6 65 93 6 0 0 0 0 3 7 8 1 0 0 0 0 0 0 0 0 0

GFSMA_con_mlcape_036.txt.gz
CAPE
1018 935 879 981 1095 1040 862 600 772 952 1057 1208 1205 989 621 565 64 373 360 704 732 1343 1386 1852 1354 1157 1065 1176 1009 790 902 972 1052 1076 935 778 477 394 382 370 438 442 562
900 1149 995 912 985 1168 909 766 863 1122 1146 899 288 835 864 725 527 503 447 433 861 965 921 1277 1838 1713 1466 1523 1396 1148 837 578 857 1180 1235 1065 671 396 861 1054 753 415 309
734 1015 777 775 1050 1006 1033 943 891 658 33 0 0 314 919 865 855 710 709 727 636 805 568 619 861 1480 1629 1739 1506 1560 1551 1206 691 478 1101 1134 927 854 781 1026 743 495 472
954 862 801 699 1244 860 705 658 618 255 4 0 0 0 0 203 392 550 686 538 392 759 830 455 332 448 1050 1744 1487 1068 965 947 1176 1006 549 399 382 361 637 745 935 534 256
1135 1168 741 885 1302 1183 885 706 459 2 0 0 0 0 0 1 10 10 50 39 40 691 909 844 568 446 693 922 1359 1030 919 664 734 1142 1180 813 669 573 864 811 707 637 679
1536 1137 895 1245 1112 1120 975 635 349 11 0 0 0 0 0 0 7 24 106 307 276 718 960 884 768 621 659 859 1263 1318 1259 898 764 885 755 870 1093 927 882 754 715 691 572
1243 1161 782 1101 1078 894 768 354 26 0 0 0 0 0 0 0 0 32 17 156 360 503 615 652 743 1039 1097 846 727 816 1232 1282 989 823 705 690 605 590 697 773 741 744 862
978 1251 767 873 751 1034 550 142 0 0 0 0 0 0 0 0 12 5 1 3 252 362 188 95 307 623 494 462 646 877 1042 1111 1107 1010 870 773 747 793 787 768 732 655 755
982 1106 804 712 772 532 415 60 0 0 0 0 0 0 0 0 7 3 0 8 56 8 0 0 46 453 336 14 0 0 13 182 200 139 94 130 273 418 601 709 715 698 733
1180 1044 1188 729 613 610 291 50 0 0 0 0 0 0 0 0 11 0 0 0 0 0 0 0 0 64 0 0 0 0 0 0 0 0 0 0 0 0 0 10 63 267 413
1203 1163 1000 727 665 554 267 13 0 0 0 0 8 0 0 0 0 0 5 0 0 0 0 0 0 0 0 0 0 0 0 0 0 0 0 0 0 0 0 0 0 0 0
1258 1145 1149 795 539 239 169 0 0 0 0 0 0 0 0 0 0 0 0 0 0 0 0 0 0 0 0 0 0 0 0 0 0 0 0 0 0 0 0 0 0 0 0
1072 825 1181 943 554 188 35 0 0 0 0 0 0 0 0 0 0 0 0 0 0 0 0 0 0 0 0 0 0 0 0 0 0 0 0 0 0 0 0 0 0 0 0
936 766 852 853 465 107 4 0 0 0 0 0 0 0 0 0 0 0 0 0 0 0 0 0 0 0 0 0 0 0 0 0 0 0 0 0 0 0 0 0 0 0 0
430 591 654 706 438 171 100 21 0 0 0 0 0 0 0 0 0 0 0 0 0 0 0 0 0 0 0 0 0 0 0 0 0 0 0 0 0 0 0 0 0 0 0
503 369 532 501 433 288 228 114 16 2 0 0 0 0 0 0 0 0 0 0 0 0 0 0 0 0 0 0 0 0 0 0 0 0 0 0 0 0 1 0 0 0 0
865 485 604 541 466 389 335 213 82 2 0 0 17 0 0 0 0 0 0 0 0 0 0 0 0 0 3 9 17 13 2 0 0 0 7 7 0 0 6 1 0 0 0
1222 967 704 794 700 590 478 377 102 24 2 0 3 58 0 0 0 0 0 0 0 0 0 0 0 0 0 0 0 0 8 41 23 0 0 1 0 0 0 0 0 0 0
1542 1172 1067 993 837 734 628 482 130 42 1 1 16 28 28 1 0 0 0 0 0 10 3 0 0 0 0 4 7 2 0 0 0 0 0 0 0 0 0 0 0 0 0
1721 1401 1237 1223 1033 789 691 512 258 121 79 63 5 60 83 31 0 0 1 3 24 28 32 11 0 0 0 0 0 0 0 0 0 0 0 0 0 0 0 0 0 0 0
1790 1613 1439 1183 998 838 734 572 420 170 115 73 95 119 240 104 26 8 3 27 17 21 23 20 17 0 0 0 0 0 4 7 8 0 0 0 0 0 0 0 0 0 0
2160 1807 1512 1295 1089 954 801 635 537 351 251 154 61 56 181 276 248 135 27 81 94 42 43 46 36 0 0 0 0 0 0 0 0 0 0 0 0 0 0 0 0 0 0
2495 2164 1753 1520 1448 1322 1007 809 717 602 476 380 219 76 24 297 296 296 204 261 171 46 13 14 6 0 0 0 0 0 0 0 0 0 0 0 0 0 0 0 0 0 0
2534 2421 2073 1829 1736 1646 1234 943 795 837 618 448 241 145 138 363 314 292 153 173 153 50 18 4 0 0 0 2 0 0 0 0 0 0 0 0 0 0 0 0 0 0 0
2701 2630 2278 2065 2061 1932 1453 1084 901 851 637 535 334 374 598 526 414 181 130 93 64 8 20 22 4 4 26 51 75 0 3 0 0 0 0 0 0 0 0 0 0 0 0
2816 2572 2393 2301 2205 2188 1617 1061 552 417 424 420 420 448 542 618 426 231 276 214 41 19 49 50 31 34 8 6 0 0 0 0 0 0 0 0 0 0 0 0 0 0 0

GFSMA_con_mlcape_042.txt.gz
CAPE
696 926 848 681 631 793 1007 727 614 668 750 891 1046 893 403 377 133 17 67 897 657 833 1130 1508 1479 1549 1147 1400 1195 1418 1040 1021 875 548 1044 922 902 945 690 437 802 692 350
860 927 750 652 698 765 927 661 680 603 636 561 456 847 597 206 382 159 258 204 799 477 616 591 985 1362 1402 1132 1405 1337 1165 938 643 897 1155 1150 952 557 411 481 561 508 629
878 895 798 660 762 670 906 790 829 453 0 0 0 394 652 605 681 539 325 327 284 510 322 630 655 938 1445 1349 1257 1048 1187 950 934 1269 1276 1171 887 858 632 415 941 1094 679
823 879 813 873 754 803 844 637 569 373 0 0 0 0 0 244 551 464 595 480 458 465 517 257 270 450 857 1298 1587 1390 993 849 1057 967 860 770 1181 986 1171 1005 568 552 795
825 800 690 615 597 758 664 542 470 108 0 0 0 0 0 0 0 2 116 568 547 571 515 432 586 360 409 1112 1371 1538 1182 745 615 875 1005 885 692 761 551 417 356 491 596
881 798 739 674 876 836 852 573 311 0 0 0 0 0 0 0 5 16 42 220 171 112 390 715 790 728 440 653 1126 1207 1511 1143 587 581 714 802 928 942 865 735 623 583 573
913 889 796 829 728 881 836 744 140 0 0 0 0 0 0 0 9 13 88 266 360 460 585 778 791 679 626 873 810 759 867 885 1135 924 605 578 622 674 647 789 730 657 672
864 931 845 758 721 713 563 469 75 0 0 0 0 0 0 0 0 0 39 228 215 321 360 431 468 564 726 732 670 717 1006 1034 997 1101 758 633 628 629 596 618 600 624 553
829 946 974 860 671 645 563 370 35 0 0 0 0 0 0 0 0 0 0 82 117 112 7 0 124 355 310 227 0 13 442 733 736 550 224 71 23 62 224 356 442 629 579
772 983 1066 880 741 504 421 316 5 0 0 0 0 0 0 0 0 0 0 0 23 40 0 0 8 193 48 0 0 0 0 0 0 0 0 0 0 0 0 0 0 0 13
921 952 942 836 808 460 367 227 2 0 0 0 0 0 0 0 0 0 0 0 0 0 0 0 0 8 0 0 0 0 0 0 0 0 0 0 0 0 0 0 0 0 0
624 767 852 901 753 578 336 154 4 0 0 0 0 0 0 0 0 0 0 0 0 0 0 0 0 0 14 0 0 0 0 0 0 0 0 0 0 0 0 0 0 0 0
564 723 851 911 809 784 449 165 5 0 0 0 0 0 0 0 0 0 0 0 0 0 0 0 0 0 0 4 0 0 0 0 0 0 0 0 0 0 0 0 0 0 0
413 931 964 941 901 787 495 219 18 0 0 0 0 0 0 0 0 0 0 0 0 0 0 0 0 0 0 0 0 0 0 0 0 0 0 0 0 0 0 0 0 0 0
580 932 1045 1039 941 807 486 220 27 0 0 0 0 0 0 0 0 0 0 0 0 0 0 0 0 0 0 0 0 0 0 0 0 0 0 0 0 0 0 0 0 0 0
359 577 842 826 882 840 446 262 62 3 0 0 0 0 0 0 0 0 0 0 0 0 0 0 0 0 0 0 0 0 0 0 0 0 0 0 0 0 0 0 0 0 0
421 350 669 805 782 779 424 344 152 40 2 0 0 0 0 0 0 0 0 0 0 0 0 0 0 0 0 0 0 0 0 0 0 0 0 0 3 10 0 0 0 0 0
458 316 576 737 698 722 444 440 303 104 52 22 0 0 0 0 0 0 0 0 0 0 0 0 0 0 0 0 0 0 0 0 0 0 0 0 0 0 0 0 0 0 0
554 326 494 683 690 720 514 375 366 231 128 89 45 0 0 0 0 0 0 0 0 0 0 0 0 0 0 0 0 0 0 0 0 0 0 0 0 0 0 0 0 0 0
714 451 530 731 750 698 584 471 400 344 255 162 116 36 0 0 0 0 0 0 0 0 1 4 0 6 0 0 0 0 0 0 0 0 0 0 0 0 0 0 0 0 0
975 751 504 704 668 668 628 563 475 431 350 313 240 154 20 0 0 0 0 0 0 1 0 3 5 0 2 2 0 0 0 0 0 0 0 0 0 0 0 0 0 0 0
1161 1073 893 721 751 793 717 660 658 574 481 467 432 362 230 38 0 0 0 0 0 0 1 2 14 8 1 0 0 0 0 0 0 0 0 0 0 4 0 0 0 0 0
979 1137 1094 986 803 980 963 841 777 790 798 698 647 528 213 91 71 9 1 0 0 4 1 3 12 4 2 16 4 0 0 0 0 0 0 0 0 0 0 0 0 0 0
848 929 1115 1142 1108 1065 950 895 938 1010 807 794 674 434 352 259 182 129 105 45 38 48 8 3 6 3 0 1 2 0 0 0 0 0 0 0 0 0 0 0 0 0 0
1261 1152 1143 1182 1132 1118 815 756 740 845 721 825 619 542 563 405 210 199 133 102 27 58 0 2 0 0 0 0 1 0 0 1 0 0 0 0 0 0 0 0 0 0 0
1709 1681 1540 1389 1314 1304 849 792 755 846 901 878 761 579 563 656 357 77 125 31 200 77 9 1 3 0 0 0 0 0 0 0 0 0 0 0 0 0 0 0 0 0 0

GFSMA_con_mlcape_045.txt.gz
CAPE
1504 1650 1686 1499 1393 1599 1619 1269 1378 1436 1073 1327 1332 1637 1113 1287 778 470 541 1069 643 752 1242 1382 1186 1236 1459 1532 1406 1173 1170 1227 1042 707 972 1125 996 1060 872 374 590 723 422
1476 1599 1592 1404 1429 1515 1622 1508 863 1214 1275 1084 903 1613 1415 888 1235 764 756 824 616 694 710 910 946 1229 1331 1083 1375 1308 1354 1013 1021 742 1108 1069 1045 707 495 434 429 399 485
1269 1549 1597 1439 1295 1508 1539 1556 1265 850 154 0 4 1038 1348 1321 1302 711 935 908 550 403 439 637 820 1101 1305 1537 1286 1132 1356 1045 1021 910 1176 1293 1123 1064 797 542 763 947 1043
1221 1530 1519 1492 1668 1523 1253 834 1208 1098 28 0 7 7 8 896 1319 1130 1270 964 814 513 356 367 240 262 759 1310 1465 1518 873 850 1128 1020 1067 960 1204 1063 1082 991 977 908 619
1322 1407 1392 1451 1418 1404 1290 942 1180 586 6 2 2 0 0 60 193 43 763 1274 1145 855 772 546 379 367 564 987 1214 1561 1399 915 625 651 704 946 905 782 983 959 597 479 496
1570 1529 983 1032 1280 1432 927 876 1023 220 2 0 0 0 11 54 213 188 468 594 690 577 878 1241 918 858 459 544 853 918 1371 1508 813 657 646 687 764 887 662 660 609 503 529
1421 1451 1025 1117 1070 903 907 783 932 439 43 4 0 0 6 81 163 276 562 622 762 872 1138 1388 1338 1163 874 699 668 657 744 913 1115 977 633 540 673 666 698 645 597 655 653
1307 1377 1167 1319 1344 1403 1236 1075 684 177 0 0 0 0 0 11 109 141 480 538 503 507 439 394 647 1067 1281 1167 1049 678 855 1008 1007 1047 756 615 599 526 582 566 608 598 577
1430 1390 1102 1007 1507 1335 1290 1137 730 186 0 0 0 1 0 0 11 64 133 483 533 324 74 93 430 858 870 439 11 24 467 736 826 547 186 0 0 0 19 128 265 388 443
1296 1425 1599 1508 1527 1393 1300 1059 608 156 0 0 0 0 0 21 0 4 1 72 227 259 46 4 127 461 162 0 0 0 0 0 0 0 0 0 0 0 0 0 0 0 0
1271 1371 1624 1597 1583 1399 1291 932 479 115 0 0 0 0 0 0 0 2 0 21 65 91 84 0 0 63 21 0 0 0 0 0 0 0 0 0 0 0 0 0 0 0 0
1059 1383 1558 1537 1545 1490 1283 935 614 304 50 0 0 0 0 0 0 7 36 46 9 1 0 0 0 0 58 2 0 0 0 0 0 0 0 0 0 0 0 0 0 0 0
799 1153 1474 1403 1482 1469 1280 985 571 327 142 0 0 0 0 0 0 0 0 0 0 0 0 0 0 0 2 52 7 0 0 0 0 0 0 0 0 0 0 0 0 0 0
873 959 1212 1354 1385 1462 1367 1097 676 416 170 17 0 0 0 0 0 0 0 0 0 0 0 0 0 0 0 0 27 11 1 0 0 0 0 0 0 0 0 0 0 0 0
972 841 956 1134 1450 1483 1445 1180 783 480 137 44 6 0 0 0 0 0 0 0 0 0 0 0 0 0 0 0 0 0 13 20 0 0 0 0 0 0 0 0 0 0 0
1045 902 1097 1487 1761 1617 1507 1259 928 658 240 93 44 8 0 0 0 0 0 0 0 0 0 0 0 0 0 0 0 0 0 0 0 0 0 0 0 0 0 0 0 0 0
1064 1121 1015 1361 1590 1423 1426 1344 1071 706 311 230 64 33 0 0 0 0 0 0 0 0 0 0 0 0 0 3 9 43 54 54 3 0 0 0 0 0 6 9 0 0 0
1038 1129 1118 1072 1377 1501 1413 1273 1226 791 549 383 180 65 0 0 0 1 0 0 0 0 0 0 0 0 0 15 32 12 1 0 0 0 0 0 0 0 0 0 0 0 0
1053 1087 1186 1139 1072 1354 1350 1244 1283 1008 691 550 368 209 58 5 0 3 0 0 0 1 0 0 0 0 0 0 0 0 0 0 0 0 0 0 0 0 0 0 0 0 0
1033 1053 1108 1185 1151 1173 1362 1246 1188 1136 859 685 536 404 293 101 1 0 8 4 4 3 9 2 0 0 6 18 8 0 0 2 6 0 0 0 0 0 0 0 0 0 0
1177 1103 1057 1155 1221 1109 1223 1240 1127 1114 967 816 724 563 444 322 114 5 0 11 3 7 19 4 0 0 0 0 3 28 26 13 1 10 0 16 0 0 20 0 0 0 0
1370 1344 1159 1122 1195 1083 1000 938 1236 1174 1077 995 988 838 628 238 131 33 0 7 75 60 73 20 0 0 4 10 15 39 29 41 18 5 12 4 33 85 66 29 0 0 0
1612 1468 1381 1246 1208 1250 733 644 780 1273 1274 1270 1161 1113 920 471 244 156 16 0 0 2 87 365 150 184 104 78 46 2 13 3 40 60 21 1 95 78 0 0 0 0 0
1523 1686 1609 1524 1362 1352 912 577 606 1024 1384 1436 1331 1281 1126 747 455 418 254 227 21 66 26 36 238 417 293 41 11 33 60 39 64 37 45 4 3 0 0 0 0 0 0
1434 1494 1729 1770 1656 1556 1053 745 611 899 1291 1600 1447 1298 1094 862 742 220 449 542 308 372 168 33 42 61 0 1 0 1 0 1 5 3 14 0 0 4 0 0 0 0 0
1483 1487 1575 1826 1881 1840 1428 787 695 1076 1184 1397 1222 1051 646 768 461 234 301 378 546 488 144 30 0 0 0 0 0 2 47 29 33 2 3 0 0 0 0 0 0 0 0

GFSMA_con_mlcape_048.txt.gz
CAPE
1617 1827 1572 1613 1497 1507 1220 1350 1194 1246 1089 1172 1232 384 43 847 660 664 743 540 776 1372 1397 1320 1292 1188 1577 1498 1230 1238 1160 1049 819 850 994 1183 1055 1103 715 375 392 689 435
1531 1600 1305 1444 1311 1547 1709 1355 1214 1272 1087 1124 1008 728 154 68 1072 473 225 894 728 862 1113 1284 1089 1163 1355 1431 1468 1490 1448 1149 1166 849 728 919 1099 883 851 461 400 388 377
1521 1667 1616 1515 1296 1608 1126 1118 1051 948 582 38 50 461 238 346 910 780 553 252 360 369 662 838 1005 1138 1295 1476 1299 1377 1384 1427 1017 709 686 1238 1182 1110 836 482 476 912 1043
1550 2045 1709 1539 1714 1611 1125 754 797 722 278 19 39 36 11 73 104 574 403 198 54 381 177 374 552 723 1012 1404 1568 1558 1276 952 1040 1064 1063 1340 1160 1264 977 1020 770 800 800
1745 2103 1632 1600 2213 1433 1436 1347 988 788 375 97 23 16 1 29 50 46 192 409 555 247 374 285 213 270 530 1072 1278 1512 1415 1190 811 652 762 897 763 753 888 801 819 555 290
2075 2277 1884 1733 2081 1193 1091 1293 837 872 433 197 2 0 13 32 48 60 249 472 557 463 374 928 783 525 392 751 1039 1046 1438 1514 1204 722 475 518 515 792 765 622 531 496 406
2214 2464 1768 1954 1763 1193 951 1115 909 729 558 177 0 0 15 37 37 82 111 91 124 212 312 436 621 725 799 528 641 675 766 1079 1087 1119 789 603 418 527 631 525 596 638 596
2228 2237 1690 1287 1763 1384 1034 1033 859 689 277 4 0 0 20 12 44 75 124 83 115 68 44 35 192 390 607 998 1099 419 733 1044 1147 1015 841 530 533 444 492 534 556 537 525
1954 2132 1736 1259 1736 1251 998 1215 1220 918 187 49 0 2 1 21 13 27 152 121 109 29 7 20 178 583 810 293 45 0 522 795 787 570 177 0 0 0 0 1 69 184 223
1612 1747 1729 1627 1722 1368 1274 1366 1315 1035 591 6 0 0 34 243 4 26 11 123 99 96 8 0 32 66 0 0 0 0 0 0 0 0 0 0 0 0 0 0 0 0 0
1725 1543 1671 1461 1831 2011 1581 1944 1477 1344 524 50 0 0 0 0 0 4 36 23 42 68 78 1 6 5 0 0 0 0 0 0 0 0 0 0 0 0 0 0 0 0 0
1242 1764 1592 1866 2086 2034 1958 2087 1823 1451 980 399 0 0 0 0 0 0 1 4 34 53 40 33 0 3 19 1 0 0 0 0 0 0 0 0 0 0 0 0 0 0 0
811 1087 1763 1697 1960 2263 1949 2123 2029 1312 1324 774 204 0 0 0 0 0 0 0 0 4 0 6 12 1 1 15 5 0 0 0 0 0 0 0 0 0 0 0 0 0 0
740 870 1315 1677 2036 1847 2227 2203 1967 1587 1093 1081 592 60 0 0 0 0 0 0 0 0 0 0 0 0 0 0 20 0 0 0 0 0 0 0 0 0 0 0 0 0 0
992 1093 1272 1641 1679 1905 2175 2245 1982 1805 1123 1192 738 465 27 0 0 0 0 0 0 0 1 6 0 0 0 0 0 0 0 0 0 0 0 0 0 0 0 0 0 0 0
1578 1134 1505 1444 1735 1919 2216 2345 1978 1893 1572 1028 685 436 247 0 0 0 0 0 0 0 0 0 0 0 0 0 0 0 14 2 0 0 0 0 0 0 0 0 0 0 0
2053 1910 1680 1544 1532 1954 2463 2532 2286 1788 1801 1278 670 467 520 5 0 0 0 0 0 0 0 0 0 0 10 24 0 0 3 0 12 0 0 0 0 0 0 0 0 0 0
2219 2249 2119 1910 1655 1848 2420 2514 2335 1767 1852 1520 1022 671 550 212 103 16 14 7 0 4 0 0 0 0 45 34 76 150 7 0 0 0 0 0 0 0 0 0 0 0 0
2189 2134 2285 2277 1971 1695 1964 2357 2251 2117 1904 1754 1269 1083 661 404 232 17 17 4 4 17 26 0 0 4 0 54 118 117 51 0 0 0 0 0 0 0 0 0 0 0 0
2209 2241 2318 2422 2230 2139 1899 1893 2113 2124 2150 1871 1623 1209 991 635 365 277 145 125 30 10 32 9 0 0 9 2 33 8 72 40 2 34 14 0 0 0 0 0 0 0 0
2344 2265 2279 2390 2357 2138 1789 1881 2019 2083 2236 2139 1785 1467 1164 946 624 541 251 251 78 77 5 40 3 0 8 6 42 3 20 28 100 127 40 31 38 69 52 0 0 0 0
2465 2468 2326 2317 2191 2054 1592 1226 1862 2043 2160 2310 2195 1852 1499 1040 824 461 313 226 213 20 9 5 12 5 25 28 53 29 42 51 89 27 66 81 89 89 115 103 7 0 0
2404 2443 2383 2360 2294 2360 1663 1260 1120 1887 2050 2257 2380 2237 1841 1479 1098 944 253 85 52 48 91 359 168 258 146 230 253 196 340 129 75 114 66 66 99 125 83 43 0 0 0
2394 2557 2574 2515 2492 2511 2028 1319 1061 1398 1851 2252 2450 2399 2266 1948 1622 1251 806 239 170 69 91 136 322 520 590 777 648 438 218 165 180 123 45 37 24 24 20 5 0 0 0
2512 2483 2472 2604 2763 2619 2121 1515 1137 1413 1659 2050 2550 2549 2441 2382 2098 996 1080 765 260 238 288 100 118 248 359 319 253 225 49 81 55 61 16 6 5 2 8 4 0 0 0
2336 2278 2286 2510 2682 2747 2646 1796 1178 1485 1495 1681 2073 2351 1900 2166 1905 1011 919 911 724 769 589 254 117 27 16 1 0 46 62 6 50 34 12 0 0 0 0 0 0 0 0